North Bennington, VT

7:16 AM EDT on September 28, 2016 (GMT -0400)
Morse State

Weather History for KDDH - August, 2013

Change the Weather History Date:

Thursday, August 1, 2013

  Actual Average Record
Temperature  
Mean Temperature 67 °F 68 °F  
Max Temperature 77 °F 79 °F 91 °F (2006)
Min Temperature 56 °F 57 °F 50 °F (2010)
Degree Days  
Heating Degree Days 0 1  
Month to date heating degree days 0 1  
Since 1 June heating degree days 110 122  
Since 1 July heating degree days 10 25  
Cooling Degree Days 2 4  
Month to date cooling degree days 2 4  
Year to date cooling degree days 380 199  
Since 1 June cooling degree days 348 185  
Growing Degree Days 16 (Base 50)    
Moisture  
Dew Point 59 °F    
Average Humidity 77    
Maximum Humidity 93    
Minimum Humidity 60    
Precipitation  
Precipitation 0.09 in 0.14 in 2.26 in (2003)
Month to date precipitation 0.09 0.14  
Year to date precipitation 27.45 23.68  
Sea Level Pressure  
Sea Level Pressure 29.91 in    
Wind  
Wind Speed 5 mph (South)    
Max Wind Speed 18 mph    
Max Gust Speed 28 mph    
Visibility 10 miles    
Events Rain    
T = Trace of Precipitation, MM = Missing Value Source: NWS Daily Summary

Daily Weather History Graph

Daily Weather History Graph

Search for Another Location

Airport or City:

Trip Planner

Search our weather history database for the weather conditions in past years. The results will help you decide how hot, cold, wet, or windy it might be!

Date:

Astronomy

Aug. 01, 2013 Rise Set
Actual Time 5:44 AM EDT 8:13 PM EDT
Civil Twilight 5:12 AM EDT 8:45 PM EDT
Nautical Twilight 4:32 AM EDT 9:25 PM EDT
Astronomical Twilight 3:46 AM EDT 10:10 PM EDT
Moon 1:18 AM EDT (8/1) 4:21 PM EDT (8/1)
Length of Visible Light 15h 33m
Length of Day
14h 29m
Waning Crescent, 23% of the Moon is Illuminated
Aug 1
Waning Crescent
Aug 6
New
Aug 14
First Quarter
Aug 20
Full
Aug 28
Last Quarter

Hourly Weather History & Observations

Time (EDT) Temp. Dew Point Humidity Pressure Visibility Wind Dir Wind Speed Gust Speed Precip Events Conditions
12:54 AM 57.9 °F 54.0 °F 87% 30.04 in 10.0 mi Calm Calm - N/A   Clear
1:54 AM 57.0 °F 55.0 °F 93% 30.02 in 10.0 mi Calm Calm - N/A   Partly Cloudy
2:54 AM 57.0 °F 54.0 °F 89% 30.01 in 10.0 mi Calm Calm - N/A   Mostly Cloudy
3:54 AM 57.0 °F 54.0 °F 89% 29.99 in 10.0 mi Calm Calm - N/A   Partly Cloudy
4:54 AM 57.0 °F 54.0 °F 89% 29.98 in 10.0 mi Calm Calm - N/A   Scattered Clouds
5:54 AM 57.0 °F 54.0 °F 89% 29.97 in 10.0 mi Calm Calm - N/A   Clear
6:54 AM 60.1 °F 55.9 °F 86% 29.98 in 10.0 mi Calm Calm - N/A   Clear
7:54 AM 66.0 °F 60.1 °F 81% 29.97 in 10.0 mi Calm Calm - N/A   Clear
8:54 AM 71.1 °F 61.0 °F 70% 29.95 in 10.0 mi Calm Calm - N/A   Clear
9:54 AM 73.0 °F 61.0 °F 66% 29.93 in 10.0 mi South 10.4 mph - N/A   Clear
10:54 AM 75.0 °F 62.1 °F 64% 29.91 in 10.0 mi South 12.7 mph - N/A   Mostly Cloudy
11:54 AM 75.9 °F 60.1 °F 58% 29.90 in 10.0 mi SSE 13.8 mph 20.7 mph N/A   Overcast
12:54 PM 73.0 °F 61.0 °F 66% 29.88 in 10.0 mi South 10.4 mph 20.7 mph 0.00 in Rain Light Rain
1:54 PM 69.1 °F 62.1 °F 78% 29.89 in 5.0 mi South 6.9 mph - 0.03 in Rain Light Rain
2:54 PM 68.0 °F 61.0 °F 78% 29.89 in 10.0 mi South 13.8 mph 23.0 mph 0.02 in   Overcast
3:54 PM 66.9 °F 61.0 °F 81% 29.88 in 10.0 mi South 11.5 mph 19.6 mph 0.01 in   Overcast
4:06 PM 68.0 °F 60.8 °F 78% 29.89 in 10.0 mi Variable 6.9 mph - N/A   Overcast
4:54 PM 68.0 °F 61.0 °F 78% 29.88 in 10.0 mi South 10.4 mph - N/A   Overcast
5:44 PM 68.0 °F 60.8 °F 78% 29.87 in 10.0 mi Variable 3.5 mph - N/A   Overcast
5:54 PM 68.0 °F 61.0 °F 78% 29.87 in 10.0 mi South 5.8 mph - N/A   Overcast
6:21 PM 68.0 °F 59.0 °F 73% 29.88 in 10.0 mi South 6.9 mph 18.4 mph N/A   Overcast
6:54 PM 66.9 °F 60.1 °F 79% 29.87 in 10.0 mi Calm Calm - N/A   Overcast
7:54 PM 66.0 °F 61.0 °F 84% 29.86 in 4.0 mi Variable 4.6 mph - 0.02 in Rain Light Rain
8:54 PM 66.0 °F 61.0 °F 84% 29.86 in 10.0 mi Calm Calm - 0.01 in Rain Light Rain
9:54 PM 66.0 °F 61.0 °F 84% 29.86 in 10.0 mi Calm Calm - 0.00 in   Overcast
10:23 PM 66.2 °F 60.8 °F 83% 29.87 in 9.0 mi SW 6.9 mph - 0.00 in Rain Light Rain
10:40 PM 66.2 °F 60.8 °F 83% 29.87 in 10.0 mi SW 4.6 mph - 0.00 in   Overcast
10:54 PM 66.0 °F 61.0 °F 84% 29.85 in 10.0 mi WSW 3.5 mph - 0.00 in   Overcast
11:54 PM 66.0 °F 62.1 °F 87% 29.84 in 10.0 mi Calm Calm - N/A   Overcast